RH
5 6 6 9 9 10 11 13 15 16 17 18 21 22 25 65 100 100 100 91 76 100 100 100 86 71 87 100 100 98 92 96 100 90 86 81 79 84 88 85 78 66 57 47
18 6 7 8 11 10 11 12 14 16 19 19 21 22 24 38 96 100 100 100 98 100 100 100 98 76 82 97 98 96 88 99 100 100 100 78 82 80 88 56 58 55 60 63
30 13 7 8 11 13 12 11 14 16 21 20 22 22 24 48 76 100 100 100 100 100 97 100 100 100 80 86 99 92 91 86 89 100 100 87 89 81 86 73 62 58 55 59
25 30 16 8 9 13 14 12 12 16 23 22 22 27 35 69 95 100 76 100 100 100 99 98 100 100 97 92 91 94 90 95 98 100 100 94 83 79 76 68 67 63 61 62
25 25 34 19 11 10 13 15 13 14 20 24 24 26 48 86 88 100 100 100 100 100 95 100 90 100 100 92 100 92 84 83 85 100 98 93 85 86 80 68 74 51 50 57
33 25 25 36 32 13 13 12 15 14 16 25 26 26 56 86 100 100 100 100 86 100 100 100 100 100 96 100 100 100 100 100 100 94 92 96 89 88 80 76 84 69 58 79
34 35 28 25 33 40 17 15 12 15 18 22 26 26 100 62 91 100 100 100 100 96 100 100 100 100 100 100 99 100 100 100 100 100 100 100 96 99 88 82 100 90 83 89
38 35 33 30 27 31 45 20 15 13 15 21 22 26 94 100 68 82 100 100 100 98 100 100 100 100 100 100 84 100 95 100 92 99 100 100 100 100 100 100 99 100 100 96
48 45 37 36 34 29 27 46 26 16 14 16 23 29 36 100 100 97 89 97 100 100 99 90 100 100 100 100 74 95 96 89 95 98 98 96 100 100 100 100 100 96 100 100
60 50 42 39 41 39 36 29 44 38 19 17 20 29 38 45 91 100 100 100 100 100 100 100 100 100 100 100 100 98 97 81 74 90 87 88 86 95 100 100 100 100 100 100
53 70 60 43 40 42 40 40 35 40 41 20 18 24 38 36 35 59 100 100 100 100 100 100 100 100 100 100 100 100 100 93 86 98 93 99 99 99 100 100 100 100 100 100
69 67 66 57 50 46 50 49 38 36 41 44 24 21 20 30 34 32 47 86 100 100 100 100 100 100 100 100 100 100 100 84 89 82 73 75 90 100 100 100 100 100 100 100
58 74 78 70 57 48 50 56 56 46 41 38 46 23 18 21 28 34 30 32 44 74 97 100 100 100 100 100 100 100 100 96 97 100 94 94 96 100 100 100 100 100 100 100
70 61 84 67 70 52 52 57 61 67 54 41 40 47 23 17 18 29 31 30 26 35 62 92 100 100 100 100 100 100 100 100 100 100 100 100 100 97 96 100 100 100 100 100
71 71 80 77 80 72 57 54 56 66 76 56 41 43 51 25 17 19 26 34 34 30 38 64 96 100 100 100 100 100 100 100 100 100 100 100 100 100 100 100 100 100 100 100
80 60 95 81 82 89 65 64 51 52 58 75 62 45 49 52 28 19 18 27 38 38 34 36 55 83 100 100 100 100 100 100 100 100 100 100 100 100 100 100 100 100 100 100
74 61 63 98 78 76 77 77 67 54 55 50 73 65 46 55 56 37 26 22 26 39 41 39 43 57 79 98 100 100 100 100 100 100 100 100 100 100 100 100 100 100 100 100
52 60 68 68 73 68 69 64 58 56 50 52 50 58 66 48 65 79 54 40 30 34 43 44 41 44 55 71 83 94 99 100 100 100 100 100 100 100 100 100 100 100 100 100
87 73 68 69 53 49 55 62 55 59 60 67 54 54 47 62 51 64 95 78 55 48 48 48 49 48 49 55 67 86 100 100 100 100 100 100 100 100 100 100 100 100 100 98
97 98 92 95 71 60 95 76 64 64 71 73 73 64 63 55 68 58 58 91 100 76 60 57 59 61 63 67 77 89 100 100 100 100 100 100 100 100 100 100 100 100 100 99
93 87 78 76 70 95 100 87 92 84 91 81 86 93 96 88 67 74 60 52 58 84 98 96 83 74 76 76 76 79 85 89 94 98 97 98 98 98 98 99 98 97 100 100
100 100 100 91 84 90 100 94 85 80 79 100 96 98 100 100 99 70 85 74 64 64 64 71 82 94 100 100 100 100 99 99 99 100 100 100 100 100 100 100 100 100 100 99
100 100 97 94 91 99 100 76 69 69 60 66 76 96 98 89 92 100 91 71 70 70 66 66 69 75 84 93 100 100 100 100 100 100 100 100 100 100 98 90 85 85 84 76
89 95 86 93 99 100 100 100 99 94 92 84 76 75 82 83 84 81 76 71 73 71 70 70 68 73 75 76 81 88 91 92 94 93 91 90 92 91 89 84 74 61 56 51
90 85 81 68 91 87 84 77 72 74 78 79 91 93 94 98 98 94 88 81 77 78 76 71 76 82 77 77 83 86 87 84 78 73 71 70 69 65 60 52 51 52 52 50
100 100 71 68 79 73 84 86 92 85 80 76 76 74 80 83 92 100 100 100 100 94 88 85 77 67 66 74 84 81 76 71 72 75 72 66 60 58 57 53 51 48 49 51
Wind_Speed
39 19 4 15 31 51 67 75 84 91 99 100 98 94 89 87 88 75 67 66 68 63 60 61 60 61 61 59 58 56 53 53 52 53 52 52 50 51 48 49 48 47 49 49
59 34 13 9 22 39 59 71 79 86 97 100 99 96 91 87 88 91 84 76 69 70 52 61 60 60 61 63 59 58 56 55 55 55 55 55 53 52 55 54 51 49 50 50
73 51 28 7 16 29 46 65 75 83 94 100 100 97 92 88 87 90 84 61 68 53 61 52 62 62 61 63 63 60 59 58 59 59 58 57 58 54 57 59 55 53 53 54
69 69 49 22 7 22 35 52 69 79 89 99 101 98 93 90 83 70 82 84 75 64 67 64 67 67 65 63 62 63 62 60 59 59 59 59 60 60 61 61 60 59 56 56
64 67 69 49 19 10 28 42 58 73 84 94 101 99 98 95 94 78 65 87 83 75 75 74 70 63 68 61 62 63 64 64 63 61 61 61 63 63 63 63 65 66 60 60
62 62 63 65 51 20 12 32 45 60 77 90 100 100 100 97 97 98 98 93 87 87 86 82 74 72 64 63 65 64 65 68 68 67 65 64 64 65 64 65 67 70 64 64
63 61 59 60 62 51 21 12 34 48 65 83 96 99 99 99 100 100 98 92 86 90 85 80 79 71 72 64 70 67 67 69 68 68 68 67 67 68 67 66 67 70 68 67
60 59 58 56 56 57 50 24 11 35 51 72 85 93 103 102 101 101 100 94 94 88 88 83 80 79 74 66 74 73 73 61 72 70 68 68 68 69 70 70 70 70 73 70
56 59 53 53 53 52 53 50 25 10 35 54 72 87 102 107 103 102 101 98 93 93 94 82 83 81 74 78 77 75 76 75 75 72 72 70 71 70 71 72 73 73 73 73
53 53 53 49 48 49 49 48 47 28 10 35 57 75 97 109 110 104 101 98 96 95 95 88 86 85 84 85 80 79 79 79 77 76 76 75 73 73 74 75 74 74 76 78
52 51 52 50 45 44 44 44 44 44 29 10 36 60 83 102 108 108 107 104 101 98 95 92 90 88 87 85 81 82 78 81 77 78 76 74 75 75 76 78 78 79 81 82
51 51 47 46 45 42 41 41 41 41 40 29 10 38 63 83 98 104 108 110 107 102 98 95 93 90 89 86 85 84 82 83 81 81 79 77 77 78 80 81 82 83 84 86
47 42 45 49 44 38 38 38 39 40 39 38 31 15 31 59 81 98 105 106 106 106 102 98 94 91 88 87 85 83 83 83 82 82 83 83 83 83 83 84 85 85 87 92
44 43 43 41 44 36 33 37 36 36 38 37 36 32 16 33 60 82 95 101 101 100 101 98 95 92 89 88 87 85 84 84 84 86 87 89 89 88 86 87 89 91 93 96
43 42 47 43 41 42 35 36 35 35 34 36 36 35 32 18 32 56 77 91 97 96 95 97 96 93 91 89 88 88 88 88 89 90 91 93 91 90 92 94 94 94 94 97
43 35 42 50 45 41 40 33 35 35 33 32 35 34 34 28 17 29 53 72 88 93 91 91 93 93 91 89 88 88 88 89 91 92 93 93 93 94 94 94 96 98 98 99
42 39 34 47 48 44 39 35 34 33 33 35 33 34 31 30 24 16 25 49 68 83 88 86 85 87 88 89 88 89 89 88 88 88 89 90 91 93 93 94 95 96 97 99
38 38 38 39 47 47 44 33 33 32 34 37 35 30 31 29 25 21 16 23 45 65 76 80 78 77 79 83 86 88 90 90 90 90 89 90 90 91 92 94 96 98 100 102
50 48 51 50 49 48 56 46 33 32 35 36 37 34 35 29 25 22 15 13 22 40 58 67 69 69 70 71 74 77 79 81 82 84 86 88 90 92 94 96 98 100 102 104
59 60 60 59 55 53 59 57 50 38 38 37 40 41 42 37 28 26 22 16 12 22 37 50 59 63 65 66 68 71 74 77 79 81 84 87 90 92 95 97 100 103 104 107
59 63 65 65 60 52 58 56 54 51 42 45 45 43 42 39 36 33 29 30 29 25 26 32 45 57 63 67 70 72 75 78 81 84 87 90 93 96 99 101 103 104 103 100
68 67 66 65 62 54 58 58 56 56 52 49 48 45 43 41 42 38 39 37 36 38 41 41 42 45 49 54 59 63 67 71 74 76 78 81 83 86 88 91 94 99 102 106
70 69 68 63 60 58 59 60 59 59 57 52 48 47 47 46 46 46 47 45 46 46 46 49 51 54 56 58 59 61 64 68 72 75 78 82 85 88 91 95 100 104 107 111
67 68 68 68 63 64 69 70 68 66 62 58 52 47 48 48 47 46 46 49 50 50 52 54 56 59 63 66 68 70 73 76 79 82 86 90 93 96 99 103 106 110 114 117
74 79 80 70 69 72 71 77 78 73 69 66 66 64 61 59 59 60 60 59 58 59 60 60 63 65 67 70 74 77 80 84 87 91 94 98 100 103 106 109 112 113 114 116
87 87 85 74 78 79 72 77 77 74 73 71 68 64 62 62 62 64 67 69 70 71 70 71 72 72 75 78 80 82 85 88 90 94 97 100 103 105 108 111 113 114 115 115
Wind_Direction
19 9 282 225 215 213 207 207 207 207 210 211 214 214 213 207 208 212 220 228 226 233 238 234 233 235 235 238 239 242 246 251 254 257 258 260 264 267 272 272 273 277 277 280
22 15 0 229 219 214 211 208 208 207 208 210 212 213 214 212 209 213 220 228 230 230 228 229 235 237 237 238 241 244 245 247 249 252 257 261 263 266 271 270 273 276 279 282
25 23 17 335 222 220 216 211 209 208 208 209 211 213 214 214 213 214 218 224 226 232 224 226 231 236 240 240 241 244 246 248 250 250 255 261 263 267 270 273 275 276 279 283
24 27 25 17 281 221 221 218 213 209 207 209 211 211 212 213 209 219 216 214 220 218 227 230 232 236 240 242 244 243 245 247 249 252 254 258 262 265 268 273 277 277 280 284
22 25 27 26 17 257 221 221 219 215 210 210 211 212 211 213 213 206 222 220 221 221 228 238 236 240 237 243 244 246 248 248 250 250 253 258 263 265 270 272 274 278 280 283
20 22 26 29 29 15 255 226 223 222 215 210 211 212 213 212 213 217 215 222 220 224 229 234 238 239 240 240 242 244 247 249 251 255 257 259 263 267 270 273 279 281 284 286
14 18 21 25 29 31 14 259 230 223 222 215 214 213 210 216 216 219 222 224 228 227 229 234 239 239 239 242 240 243 246 249 251 255 258 263 267 269 273 274 277 280 281 283
8 10 15 18 23 26 33 18 261 229 221 222 220 213 211 216 220 220 221 222 223 230 229 232 236 238 241 243 242 242 246 249 252 255 259 264 267 270 272 273 275 276 280 282
4 5 7 13 16 20 22 31 23 267 228 222 222 219 214 215 217 222 222 224 224 227 233 233 235 239 238 237 243 247 251 252 255 258 261 264 267 268 270 273 274 277 280 282
4 5 6 7 11 14 17 20 26 26 280 230 221 220 217 217 220 220 225 225 226 228 232 235 237 239 239 243 247 250 253 254 255 258 261 264 267 269 271 273 275 276 276 278
355 359 358 2 0 7 11 13 17 19 21 292 233 222 221 221 222 223 222 226 227 229 231 235 238 240 243 245 248 250 253 256 259 262 263 266 269 271 273 274 274 276 279 281
350 351 356 357 357 356 2 7 8 12 14 16 304 237 228 224 224 225 226 226 228 229 232 235 237 240 242 245 247 251 253 256 259 262 264 266 268 271 273 274 276 278 280 282
343 349 351 349 353 355 357 1 3 4 5 7 7 308 238 233 229 227 228 229 230 231 231 234 238 240 243 246 248 251 253 257 260 263 267 269 271 272 273 274 276 279 282 283
335 342 342 347 344 354 2 358 358 2 358 358 2 1 311 243 228 230 230 230 231 232 234 234 237 240 243 246 250 253 254 257 259 263 265 268 271 273 275 278 280 280 281 282
325 333 337 338 341 339 339 347 354 357 355 353 351 357 -0 311 244 231 231 231 231 232 234 235 236 239 242 245 248 251 254 256 259 262 265 268 271 275 276 277 278 279 281 283
318 326 327 328 336 334 331 330 337 348 357 353 349 347 353 356 312 251 233 230 230 230 232 234 237 239 241 245 248 251 254 256 258 260 263 266 269 272 274 277 279 280 281 282
309 311 323 323 330 327 325 325 324 329 341 345 346 344 341 346 352 315 256 239 231 229 229 232 236 240 242 245 248 251 254 257 260 262 264 267 269 272 274 276 277 278 280 282
308 311 311 316 320 322 313 316 317 319 326 329 335 344 337 331 338 350 313 262 241 232 230 232 236 240 243 246 249 252 254 257 260 262 265 267 269 271 273 275 277 278 279 280
316 313 313 313 316 318 312 310 306 308 311 317 326 322 335 325 316 318 338 308 257 241 234 233 237 242 246 250 252 254 257 259 261 263 266 267 269 271 273 274 275 278 280 282
309 309 310 306 308 309 302 310 310 304 300 304 309 317 316 319 307 297 288 292 291 255 242 239 240 244 248 251 254 256 258 259 261 263 265 268 270 272 275 276 278 280 282 283
304 305 308 306 307 306 297 302 298 298 295 297 302 303 305 302 301 291 285 275 272 260 248 249 249 249 252 255 257 259 261 263 264 266 268 269 271 272 274 276 277 279 280 281
302 303 302 304 305 297 294 292 291 293 294 292 293 294 291 286 285 287 283 279 271 268 268 263 255 250 251 254 257 259 262 264 266 268 269 270 271 272 272 273 275 276 278 279
296 298 302 302 297 291 287 289 292 292 291 287 288 286 284 285 283 278 279 280 278 273 266 263 264 264 265 265 265 266 265 266 266 267 268 269 271 272 274 275 276 276 279 282
290 296 298 294 287 285 284 285 286 287 290 290 288 284 285 285 280 277 276 276 277 277 274 272 269 266 265 265 265 266 267 268 269 269 270 271 272 274 276 277 278 279 280 283
292 289 295 293 288 280 282 281 281 282 281 281 280 280 280 278 277 276 277 277 277 276 275 274 272 271 270 269 268 267 267 267 268 269 270 271 272 274 275 276 278 280 282 284
294 293 292 288 282 281 280 281 283 280 279 279 278 277 276 274 270 271 273 274 275 276 275 274 272 272 271 271 271 270 270 270 271 273 274 275 276 277 278 279 281 282 284 285